Location: Pine Mountain Observatory
(43.7910°N, 120.9377°W)
Time: 05:58:39
(UTC-07:00)

Cosmos 1867 - Visible Passes

Search period start: 30 October 2014 00:00
Search period end: 08 November 2014 23:00
Orbit: 778 x 798 km, 65.0° (Epoch: 29 October)

Date Brightness Start Highest point End Pass type
(mag) Time Alt. Az. Time Alt. Az. Time Alt. Az.
30 Oct 5.8 04:55:23 13° N 04:55:23 13° N 04:56:33 10° N visible
31 Oct 6.1 04:24:48 11° N 04:24:48 11° N 04:25:13 10° N visible
05 Nov 6.0 05:58:13 10° N 06:00:01 12° NNE 06:01:49 10° NE visible
08 Nov 5.6 06:05:50 10° NNW 06:09:51 20° NE 06:13:50 10° E visible
